カタログに戻る

FENGYUN 1C DEB

運用中PO
NORAD 33730·DEBRIS·🇨🇳 China

打ち上げ May 10, 1999 から Taiyuan Satellite Launch Center

Loading…

次のパス (今後24時間)

TLE

経年Source: Space-Track

元期: Sep 4, 2026, 01:09 UTC

1 33730U 99025DHT 26247.04819911  .00003761  00000-0  66678-3 0  9998
2 33730  99.0352 336.3377 0035800 274.3155  85.3956 14.67558859995660

AllMySatでFENGYUN 1C DEBをリアルタイム追跡

Download on the App Store